Location: Agua Amarilla
(10.0342°N, 66.8490°W)
Time: 16:24:01
(UTC+00:00)

X-37B - Pass Details

Date: 26 June 2022
Orbit: 328 x 343 km, 45.0° (Epoch: 27 July)

Event Time Altitude Azimuth Distance (km) Brightness Sun altitude
Rises 23:39:23 0° 235° (SW) 2,072 4.7 -11.5°
Reaches altitude 10° 23:41:26 10° 244° (WSW) 1,238 3.7 -11.9°
Maximum altitude 23:44:02 37° 314° (NW) 527 1.9 -12.5°
Drops below altitude 10° 23:46:39 10° 25° (NNE) 1,238 3.2 -13.1°
Sets 23:48:43 0° 33° (NNE) 2,071 4.2 -13.5°
